一网星座-0703星 (ONEWEB-0703)

导读

ONEWEB-0703是一颗由英国(GB)发射的卫星,于2023年5月20日8时整送入太空。该卫星隶属于OneWeb低轨宽带卫星星座系统,这类卫星主要使命是为全球范围提供高速卫星互联网接入服务,尤其侧重填补地面网络覆盖盲区,推动全球互联网络覆盖完善,助力偏远地区等区域的网络连通与数字化发展。

Basic Information
目录编号:
56724
目录名称:
ONEWEB-0703
国际标识:
2023-068Q
轨道中心:
EARTH
卫星名称:
一网星座-0703星
卫星全名:
一网星座-0703星 (ONEWEB-0703)
卫星状态:
在轨 (已飞行1165 天)
发射日期:
2023-05-20 UTC
国别 :
英国 (GB)
星等 :
--
Orbit Information
数据来源 国际轨道数据 AOE轨道数据
星历时间 2026-07-27T10:41:41+0800
22小时前
查看轨道信息
2026-07-25T01:00:00+0800
3天前
查看轨道信息
半长轴 7579.907km 7579.908km
偏心率 0.0002192 0.0002168
轨道倾角 87.897° 87.897°
近地点辐角 121.022° 123.130°
升交点赤经 251.247° 251.726°
平近点角 239.113° 18.496°
近地点 1200.108km 1200.127km
远地点 1203.432km 1203.415km
周期 109.460分钟 109.460分钟
每日圈数 13.155489 13.155487
Detailed Information
平衡模式:
三轴稳定
覆盖范围:
全球
运营商:
一网卫星公司
运营商所在国:
英国
制造商(研发单位):
一网卫星公司
制造商所在国:
英国
使用方式:
暂无
Satellite Introduction
OneWeb卫星网络由648颗重约125公斤的微型卫星组成,运行在1200公里的轨道上。 每颗卫星都能够提供至少每秒8千兆位的吞吐量,以使用其高吞吐量的Ku频段有效载荷为家庭和移动平台提供互联网接入。该卫星仍在工作。
2D Orbit Map
3D Orbit Map
Orbit Altitude Analysis Chart
Orbit Inclination Analysis Chart
Orbit Comprehensive Analysis Chart
View Comprehensive Chart